Location: Driftpile
(55.3500°N, 115.7667°W)
Time: 04:48:57
(UTC+00:00)

N. Korean satellite - Visible Passes

Search period start: 27 November 2021 00:00
Search period end: 07 December 2021 00:00
Orbit: 447 x 495 km, 97.3° (Epoch: 26 November)

Date Brightness Start Highest point End Pass type
(mag) Time Alt. Az. Time Alt. Az. Time Alt. Az.
27 Nov 6.8 00:01:29 10° S 00:05:04 74° WSW 00:08:37 10° NNW visible
27 Nov 7.5 12:52:26 10° NNE 12:55:47 46° E 12:59:04 10° S visible
27 Nov 7.8 14:26:12 10° NNW 14:28:44 19° WNW 14:31:14 10° WSW visible
28 Nov 9.7 01:07:45 10° SW 01:10:08 17° W 01:12:31 10° NW visible
28 Nov 8.8 12:24:19 10° NE 12:27:11 24° E 12:29:59 10° SSE visible
28 Nov 7.0 13:57:19 10° N 14:00:28 34° WNW 14:03:34 10° SW visible
29 Nov 8.7 00:38:16 10° SSW 00:41:28 30° W 00:44:39 10° NNW visible
29 Nov 9.8 11:56:48 10° ENE 11:58:26 13° E 12:00:04 10° ESE visible
29 Nov 6.3 13:28:40 10° N 13:32:06 69° WNW 13:35:28 10° SSW visible
30 Nov 7.2 00:09:22 10° S 00:12:54 61° WSW 00:16:24 10° NNW visible
30 Nov 7.0 13:00:13 10° NNE 13:03:36 57° E 13:06:57 10° S visible
30 Nov 8.0 14:34:12 10° NNW 14:36:27 17° WNW 14:38:42 10° W visible
01 Dec 9.8 01:16:03 10° WSW 01:18:01 14° W 01:19:58 10° NW visible
01 Dec 8.5 12:31:59 10° NNE 12:35:00 28° E 12:37:58 10° SSE visible
01 Dec 7.2 14:05:12 10° N 14:08:11 29° WNW 14:11:10 10° SW visible
02 Dec 9.0 00:46:17 10° SSW 00:49:17 25° W 00:52:17 10° NW visible
02 Dec 9.5 12:04:12 10° NE 12:06:17 15° E 12:08:21 10° SE visible
02 Dec 6.4 13:36:27 10° N 13:39:50 56° WNW 13:43:09 10° SSW visible
03 Dec 7.6 00:17:14 10° S 00:20:40 49° W 00:24:05 10° NNW visible
03 Dec 6.6 13:07:55 10° NNE 13:11:20 70° ESE 13:14:43 10° S visible
03 Dec 8.1 14:42:10 10° NNW 14:44:06 14° WNW 14:46:01 10° W visible
04 Dec 10.0 01:24:29 10° WSW 01:25:50 12° W 01:27:09 10° WNW visible
04 Dec 8.1 12:39:36 10° NNE 12:42:44 34° E 12:45:51 10° SSE visible
04 Dec 7.5 14:13:01 10° N 14:15:51 25° WNW 14:18:39 10° WSW visible
05 Dec 9.3 00:54:17 10° SW 00:57:03 21° W 00:59:49 10° NW visible
05 Dec 9.3 12:11:37 10° NE 12:14:02 18° E 12:16:25 10° SE visible
05 Dec 6.6 13:44:12 10° N 13:47:29 46° WNW 13:50:44 10° SW visible
06 Dec 8.0 00:25:03 10° S 00:28:23 40° W 00:31:41 10° NNW visible
06 Dec 6.3 13:15:34 10° NNE 13:19:00 86° ESE 13:22:23 10° SSW visible
06 Dec 8.3 14:50:11 10° NNW 14:51:40 12° NW 14:53:11 10° W visible
